Find Kuiper-00158

NORAD ID: 65776 Int'l Des: 2025-217 Owner: KUIP Country: US Constellation: amazon-leo operational
LEOCIRCULAR

当前视图

正在加载3D地球...

About Kuiper-00158

Kuiper-00158 (NORAD 65776) is a amazon-leo constellation satellite launched Sep 25, 2025 by KUIP of US. It operates in LEO, CIRCULAR orbit with a mass of 490.00 kg.

即将过境

Passes for default location (London). Set your location on the main map for personalized predictions.

高度历史

Loading altitude history...

两行轨道根数

1 65776U 25217Q 26263.23538869 .00001901 00000-0 26524-3 0 9994
2 65776 51.8958 263.1533 0000785 7.4225 352.6750 14.82018658 53685
Epoch: Sep 20, 2026 • Age: 21 hours

当前状态

高度 629.0 km
远地点 / 近地点 N/A
速度 7.55 km/s
星下点 51.98°N, 53.28°W
发射日期 Sep 25, 2025
运行时间 0.9 years
类型 internet

技术详情

分类 Payload
质量 490.00 kg
形状 ? Box + 2 pan
制造商 KUIP
平台类型 Kuiper
阶段状态 In Orbit
所有者/国家 KUIP/US

Most Searched